• Join FlightAware (Why Join?)
  • Login
  • US Flag 
03:55AM EDT


 

Airport Tracker/Info


-or-


 

Live Flight TrackerFlight Track Log ✈ LOF5035 ✈ 01-Sep-2013 ✈ KGRR - KCLE

Flight Track Log - Related Links

Times and Time Zones

All times are in EDT time to prevent confusion due to time zone crossing. See the LOF5035 flight status page for this flight to view local times or setup timezone preferences in your user account.

Time Position Orientation Groundspeed Altitude Reporting Facility
EDT Latitude Longitude Course Direction KTS MPH feet Rate Location/Type
09:33AM 42.8403 -85.5069 107° East 173 199 3,100  Level Chicago Center
09:34AM 42.7975 -85.4603 141° Southeast 234 269 4,900 2,340 Climbing Chicago Center
09:35AM 42.7769 -85.3578 105° East 278 320 7,900 2,700 Climbing Chicago Center
09:36AM 42.7544 -85.2508 106° East 290 334 10,500 2,160 Climbing Chicago Center
09:37AM 42.7317 -85.1342 105° East 310 357 12,400 1,860 Climbing Chicago Center
09:39AM 42.7115 -84.8329 107° East  Level FlightAware Approximate
09:39AM 42.7053 -85.0064 106° East 341 392 14,300  Level Chicago Center
09:40AM 42.6794 -84.8756 105° East 356 410 16,000 1,740 Climbing Chicago Center
09:41AM 42.6456 -84.7111 106° East 373 429 17,900 1,500 Climbing Chicago Center
09:42AM 42.6164 -84.5697 106° East 385 443 19,100 540 Climbing Chicago Center
09:43AM 42.5844 -84.4156 106° East 420 483 19,000 -120 Descending Chicago Center
09:43AM 42.5658 -84.3358 108° East 408 470 19,000  Level Cleveland Center
09:44AM 42.5331 -84.1844 106° East 408 470 19,000  Level Cleveland Center
09:45AM 42.5022 -84.0361 106° East 408 470 19,000  Level Cleveland Center
09:46AM 42.4692 -83.8822 106° East 408 470 19,000  Level Cleveland Center
09:47AM 42.4275 -83.7311 110° East 420 483 19,000  Level Cleveland Center
09:48AM 42.3750 -83.5936 117° Southeast 420 483 19,100  Climbing Cleveland Center
09:49AM 42.3222 -83.4506 116° Southeast 414 476 19,000 -60 Descending Cleveland Center
09:50AM 42.2714 -83.3136 117° Southeast 408 470 19,000 -300 Level Cleveland Center
09:51AM 42.2125 -83.1594 117° Southeast 416 479 18,500 -1,020 Descending Cleveland Center
09:52AM 42.1633 -83.0231 116° Southeast 411 473 17,000 -1,500 Descending Cleveland Center
09:53AM 42.1097 -82.8867 118° Southeast 411 473 15,600 -1,500 Descending Cleveland Center
09:54AM 42.0603 -82.7561 117° Southeast 406 467 14,100 -840 Descending Cleveland Center
09:55AM 42.0106 -82.6233 117° Southeast 401 461 14,000 -180 Descending Cleveland Center
09:56AM 41.9608 -82.4903 117° Southeast 396 456 13,800 -1,260 Descending Cleveland Center
09:57AM 41.9106 -82.3633 118° Southeast 396 456 11,500 -1,920 Descending Cleveland Center
09:58AM 41.8625 -82.2447 119° Southeast 382 440 10,000 -780 Descending Cleveland Center
09:59AM 41.8014 -82.1431 129° Southeast 365 420 10,000  Level Cleveland Center
10:00AM 41.7581 -82.1031 145° Southeast 352 405 10,000  Level Cleveland Center
10:01AM 41.6758 -82.0231 144° Southeast 352 405 10,000 -420 Level Cleveland Center
10:02AM 41.6222 -81.9692 143° Southeast 287 330 9,200 -1,080 Descending Cleveland Center
10:02AM 41.5892 -81.9353 143° Southeast 307 353 8,500 -1,500 Descending Cleveland Center
10:03AM 41.5122 -81.9336 179° South 267 307 6,900 -1,560 Descending Cleveland Center
10:04AM 41.4392 -81.9319 179° South 267 307 5,400 -960 Descending Cleveland Center
10:05AM 41.3925 -82.0003 228° Southwest 248 285 5,000 -300 Descending Cleveland Center
10:06AM 41.3711 -82.0358 231° Southwest 232 267 5,000 -240 Level Cleveland Center
10:06AM 41.3583 -82.0631 238° Southwest 225 259 4,800 -600 Descending Cleveland Center
10:07AM 41.3453 -82.1044 247° West 204 235 4,400 -600 Descending Cleveland Center
10:08AM 41.3072 -82.1367 212° Southwest 195 224 4,000 -240 Descending Cleveland Center
10:08AM 41.2725 -82.0944 138° Southeast 217 250 4,000 -120 Level Cleveland Center
10:09AM 41.2939 -82.0422 61° Northeast 223 257 3,800 -720 Descending Cleveland Center
10:11AM 41.3367 -81.9742 50° Northeast 204 235 2,600 -900 Descending Cleveland Center
10:11AM 41.3600 -81.9386 49° Northeast 154 177 2,000 -720 Descending Cleveland Center
10:12AM 41.3833 -81.9033 49° Northeast 124 143 1,300 -720 Descending Cleveland Center